Weather History for Columbus, GA

Change the Weather History Date:

Saturday, January 19, 2013

  Actual Average Record
Temperature  
Mean Temperature 49 °F 47 °F  
Max Temperature 63 °F 58 °F 82 °F (1990)
Min Temperature 35 °F 37 °F 6 °F (1977)
Degree Days  
Heating Degree Days 16 18  
Month to date heating degree days 178 342  
Since 1 July heating degree days 841 1171  
Cooling Degree Days 0 0  
Month to date cooling degree days 24 0  
Year to date cooling degree days 24 0  
Moisture  
Dew Point 33 °F    
Average Humidity 58    
Maximum Humidity 80    
Minimum Humidity 36    
Precipitation  
Precipitation 0.00 in 0.13 in 1.70 in (1978)
Month to date precipitation 2.18 2.27  
Year to date precipitation 2.18 2.27  
Snow  
Snow 0.00 in 0.00 in 0.00 in (2002)
Month to date snowfall 0.0 0.1  
Since 1 July snowfall 0.0 0.2  
Snow Depth -    
Sea Level Pressure  
Sea Level Pressure 30.35 in    
Wind  
Wind Speed 3 mph (SE)    
Max Wind Speed 12 mph    
Max Gust Speed 15 mph    
Visibility 10 miles    
Events      
T = Trace of Precipitation, MM = Missing Value Source: NWS Daily Summary

Daily Weather History Graph

Daily Weather History Graph

Search for Another Location

Airport:

Trip Planner

Search our weather history database for the weather conditions in past years. The results will help you decide how hot, cold, wet, or windy it might be!

Date:

Astronomy

Jan. 19, 2013 Rise Set
Actual Time 7:40 AM EST 6:00 PM EST
Civil Twilight 7:14 AM EST 6:27 PM EST
Nautical Twilight 6:44 AM EST 6:57 PM EST
Astronomical Twilight 6:14 AM EST 7:26 PM EST
Moon 12:22 PM EST (1/19) 1:19 AM EST (1/19)
Length of Visible Light 11h 13m
Length of Day
10h 20m
First Quarter, 57% of the Moon is Illuminated
Jan 19
First Quarter
Jan 26
Full
Feb 3
Last Quarter
Feb 10
New
Feb 17
First Quarter

Hourly Weather History & Observations

Time (EST) Temp. Windchill Dew Point Humidity Pressure Visibility Wind Dir Wind Speed Gust Speed Precip Events Conditions
12:51 AM 41.0 °F 39.0 °F 28.9 °F 62% 30.45 in 10.0 mi ENE 3.5 mph - N/A   Clear
1:51 AM 39.2 °F 34.2 °F 28.4 °F 65% 30.42 in 10.0 mi ESE 6.9 mph - N/A   Clear
2:51 AM 39.0 °F 34.8 °F 27.0 °F 62% 30.41 in 10.0 mi East 5.8 mph - N/A   Clear
3:51 AM 37.0 °F 33.3 °F 27.0 °F 67% 30.41 in 10.0 mi ESE 4.6 mph - N/A   Clear
4:51 AM 37.9 °F - 26.1 °F 62% 30.40 in 10.0 mi Calm Calm - N/A   Clear
5:51 AM 37.9 °F 35.5 °F 25.0 °F 60% 30.41 in 10.0 mi NE 3.5 mph - N/A   Clear
6:51 AM 37.0 °F - 26.1 °F 65% 30.42 in 10.0 mi Calm Calm - N/A   Scattered Clouds
7:51 AM 36.0 °F - 27.0 °F 70% 30.43 in 10.0 mi Calm Calm - N/A   Mostly Cloudy
8:51 AM 39.0 °F - 27.0 °F 62% 30.43 in 10.0 mi Calm Calm - N/A   Overcast
9:51 AM 44.1 °F 40.1 °F 27.0 °F 51% 30.45 in 10.0 mi ESE 6.9 mph - N/A   Scattered Clouds
10:51 AM 48.9 °F - 27.0 °F 43% 30.44 in 10.0 mi ESE 4.6 mph - N/A   Clear
11:51 AM 54.0 °F - 28.0 °F 37% 30.41 in 10.0 mi SE 5.8 mph - N/A   Clear
12:51 PM 57.0 °F - 30.9 °F 37% 30.36 in 10.0 mi Calm Calm - N/A   Clear
1:51 PM 60.1 °F - 36.0 °F 41% 30.31 in 10.0 mi West 5.8 mph - N/A   Clear
2:51 PM 61.0 °F - 36.0 °F 39% 30.28 in 10.0 mi SSW 4.6 mph - N/A   Scattered Clouds
3:51 PM 62.1 °F - 37.9 °F 41% 30.27 in 10.0 mi SW 8.1 mph - N/A   Mostly Cloudy
4:51 PM 60.1 °F - 37.9 °F 44% 30.26 in 10.0 mi SSW 5.8 mph - N/A   Scattered Clouds
5:51 PM 59.0 °F - 39.0 °F 48% 30.25 in 10.0 mi Calm Calm - N/A   Scattered Clouds
6:51 PM 57.0 °F - 39.9 °F 53% 30.26 in 10.0 mi Calm Calm - N/A   Scattered Clouds
7:51 PM 55.0 °F - 41.0 °F 59% 30.28 in 10.0 mi Calm Calm - N/A   Mostly Cloudy
8:51 PM 53.6 °F - 42.8 °F 67% 30.28 in 10.0 mi Calm Calm - N/A   Mostly Cloudy
9:51 PM 51.1 °F - 42.1 °F 71% 30.27 in 9.0 mi Calm Calm - N/A   Clear
10:51 PM 48.0 °F - 42.1 °F 80% 30.27 in 9.0 mi Calm Calm - N/A   Clear
11:51 PM 46.9 °F - 41.0 °F 80% 30.24 in 10.0 mi Calm Calm - N/A   Clear